Weather reports worldwide

Advertisment
Jaen, Spain (8417): temperature & dewpoint: 16.06.2018 20:00:00 - 22.06.2018 20:00:00 (CEST)Jaen, Spain (8417): wind speed: 16.06.2018 20:00:00 - 22.06.2018 20:00:00 (CEST)Jaen, Spain (8417): wind direction: 16.06.2018 20:00:00 - 22.06.2018 20:00:00 (CEST)Jaen, Spain (8417): reduced air pressure: 16.06.2018 20:00:00 - 22.06.2018 20:00:00 (CEST)Jaen, Spain (8417): visibility: 16.06.2018 20:00:00 - 22.06.2018 20:00:00 (CEST)Jaen, Spain (8417): precipitation: 16.06.2018 20:00:00 - 22.06.2018 20:00:00 (CEST)
Date & Time tt [°C] td [°C] ff [km/h] ff [kn] dd ppp [hPa] vv [km] rr [mm]
22.06.2018 20:00:00 32,8 12,4 11 6 WNW 1010,4 20 -
22.06.2018 19:00:00 33,2 12,2 11 6 NW 1010,5 20 0,0
22.06.2018 18:00:00 32,9 12,0 8 4 WNW 1011,0 20 0,0
22.06.2018 17:00:00 32,0 12,8 8 4 WNW 1011,6 20 -
22.06.2018 16:00:00 30,8 12,7 4 2 N 1012,4 20 0,0
22.06.2018 15:00:00 30,0 13,3 9 5 NNW 1013,0 20 0,0
22.06.2018 14:00:00 29,6 13,4 8 4 ESE 1014,0 20 -
22.06.2018 13:00:00 27,5 12,3 8 4 ESE 1015,2 20 0,0
22.06.2018 12:00:00 26,6 12,6 8 4 NE 1015,8 20 0,0
22.06.2018 11:00:00 24,7 13,6 5 3 NW 1016,4 20 -
22.06.2018 10:00:00 23,0 13,5 5 3 ENE 1017,1 20 0,0
22.06.2018 09:00:00 21,4 13,3 8 4 E 1017,2 20 0,0
22.06.2018 08:00:00 20,4 13,4 9 5 ESE 1017,4 20 -
22.06.2018 07:00:00 19,0 11,8 5 3 S 1017,7 20 0,0
22.06.2018 06:00:00 19,9 11,4 2 1 SW 1017,3 20 0,0
22.06.2018 05:00:00 20,2 11,4 4 2 S 1017,1 20 -
22.06.2018 04:00:00 21,7 10,8 2 1 SSW 1016,6 20 0,0
22.06.2018 03:00:00 23,0 9,7 9 5 WSW 1016,4 20 0,0
22.06.2018 02:00:00 26,2 8,2 15 8 SE 1015,7 4,0 -
22.06.2018 01:00:00 26,0 8,5 4 2 ESE 1015,6 19 0,0
22.06.2018 00:00:00 26,8 10,1 8 4 S 1015,0 20 0,0
21.06.2018 23:00:00 28,1 10,8 16 9 SW 1014,2 17 -
21.06.2018 22:00:00 29,0 9,7 5 3 SSW 1012,8 19 0,0
21.06.2018 21:00:00 31,6 9,8 4 2 W 1011,4 20 0,0
21.06.2018 20:00:00 33,2 9,3 4 2 N 1010,9 20 -
21.06.2018 19:00:00 33,4 10,1 8 4 N 1010,7 20 0,0
21.06.2018 18:00:00 33,1 9,8 8 4 N 1011,4 20 0,0
21.06.2018 17:00:00 32,4 9,8 8 4 NE 1012,0 18 -
21.06.2018 16:00:00 31,8 9,9 9 5 NE 1012,6 19 0,0
21.06.2018 15:00:00 31,4 10,7 8 4 NE 1013,3 18 0,0
21.06.2018 14:00:00 30,1 11,1 8 4 N 1014,3 20 -
21.06.2018 13:00:00 28,5 10,2 5 3 NNE 1015,4 20 0,0
21.06.2018 12:00:00 27,5 10,2 5 3 E 1016,1 20 0,0
21.06.2018 11:00:00 25,5 12,3 5 3 NE 1016,5 20 -
21.06.2018 10:00:00 24,0 12,3 8 4 N 1016,9 20 0,0
21.06.2018 09:00:00 23,7 10,7 8 4 ESE 1016,7 20 0,0
21.06.2018 08:00:00 20,8 11,4 8 4 E 1017,4 20 -
21.06.2018 07:00:00 19,7 10,9 5 3 SE 1017,2 20 0,0
21.06.2018 06:00:00 20,6 10,4 4 2 SE 1016,3 20 0,0
21.06.2018 05:00:00 21,4 9,3 5 3 WSW 1016,1 20 -
21.06.2018 04:00:00 23,1 9,8 5 3 W 1015,6 20 0,0
21.06.2018 03:00:00 24,5 9,6 13 7 S 1015,3 20 0,0
21.06.2018 02:00:00 25,8 9,2 11 6 S 1015,2 20 -
21.06.2018 01:00:00 26,5 8,5 13 7 SSE 1015,0 20 0,0
21.06.2018 00:00:00 26,6 8,5 9 5 SSW 1014,7 20 0,0
20.06.2018 23:00:00 28,3 8,6 9 5 SSE 1013,8 20 -
20.06.2018 22:00:00 28,0 8,3 9 5 SW 1012,6 20 0,0
20.06.2018 21:00:00 31,7 9,3 4 2 W 1011,5 20 0,0
20.06.2018 20:00:00 33,6 6,0 8 4 NNW 1011,0 20 -
20.06.2018 19:00:00 33,8 7,7 11 6 N 1011,1 20 0,0
20.06.2018 18:00:00 33,6 10,2 11 6 N 1011,4 19 0,0
20.06.2018 17:00:00 33,7 10,3 8 4 N 1011,8 20 -
20.06.2018 16:00:00 32,9 10,3 8 4 NNE 1012,5 20 0,0
20.06.2018 15:00:00 31,6 10,3 8 4 ESE 1013,4 20 0,0
20.06.2018 14:00:00 30,5 10,5 8 4 NNE 1014,6 20 -
20.06.2018 13:00:00 28,6 11,2 5 3 N 1015,5 20 0,0
20.06.2018 12:00:00 27,1 12,3 8 4 N 1016,4 20 0,0
20.06.2018 11:00:00 24,8 12,1 9 5 NNW 1017,0 19 -
20.06.2018 10:00:00 23,1 11,5 8 4 NW 1017,3 20 0,0
20.06.2018 09:00:00 22,3 11,4 4 2 N 1017,2 20 0,0
20.06.2018 08:00:00 21,1 11,1 2 1 SSE 1017,3 20 -
20.06.2018 07:00:00 21,0 8,9 2 1 SE 1017,2 20 0,0
20.06.2018 06:00:00 22,1 8,9 4 2 WSW 1016,4 20 0,0
20.06.2018 05:00:00 24,0 8,8 9 5 SE 1015,5 20 -
20.06.2018 04:00:00 23,9 9,1 15 8 SE 1015,7 20 0,0
20.06.2018 03:00:00 24,5 9,6 18 10 SE 1016,3 20 0,0
20.06.2018 02:00:00 25,1 10,2 16 9 SSE 1016,1 20 -
20.06.2018 01:00:00 26,0 10,6 15 8 SSE 1016,0 20 0,0
20.06.2018 00:00:00 26,5 10,2 9 5 SE 1015,8 20 0,0
19.06.2018 23:00:00 26,2 10,4 4 2 SSW 1015,5 20 -
19.06.2018 22:00:00 27,7 10,0 16 9 W 1014,4 20 0,0
19.06.2018 21:00:00 30,8 11,2 11 6 NW 1013,6 20 0,0
19.06.2018 20:00:00 32,8 11,3 9 5 NNW 1012,9 20 -
19.06.2018 19:00:00 33,4 11,3 5 3 WNW 1012,7 20 0,0
19.06.2018 18:00:00 33,3 11,8 5 3 W 1013,2 20 0,0
19.06.2018 17:00:00 32,7 11,8 8 4 N 1013,8 20 -
19.06.2018 16:00:00 32,4 11,5 9 5 NNE 1014,3 20 0,0
19.06.2018 15:00:00 32,0 12,3 9 5 NNE 1014,9 20 0,0
19.06.2018 14:00:00 30,5 11,5 5 3 N 1016,0 20 -
19.06.2018 13:00:00 30,0 12,0 8 4 NNE 1016,6 20 0,0
19.06.2018 12:00:00 27,8 12,6 5 3 E 1017,4 20 0,0
19.06.2018 11:00:00 25,8 13,3 5 3 NE 1018,0 20 -
19.06.2018 10:00:00 23,7 13,0 5 3 NNE 1018,7 20 0,0
19.06.2018 09:00:00 21,5 12,9 4 2 E 1019,2 19 0,0
19.06.2018 08:00:00 20,5 12,5 2 1 ESE 1019,1 20 -
19.06.2018 07:00:00 20,2 11,4 2 1 SSE 1019,0 20 0,0
19.06.2018 06:00:00 21,0 10,8 4 2 SSE 1018,2 20 0,0
19.06.2018 05:00:00 21,7 10,2 4 2 S 1017,8 20 -
19.06.2018 04:00:00 22,8 10,2 5 3 NW 1017,4 20 0,0
19.06.2018 03:00:00 23,4 10,1 2 1 SSE 1017,2 20 0,0
19.06.2018 02:00:00 24,4 9,5 5 3 WSW 1016,9 20 -
19.06.2018 01:00:00 26,8 8,7 8 4 ESE 1016,5 20 0,0
19.06.2018 00:00:00 26,9 6,3 5 3 SW 1016,2 20 0,0
18.06.2018 23:00:00 28,8 5,0 5 3 WSW 1015,4 20 -
18.06.2018 22:00:00 29,8 5,8 5 3 W 1014,4 20 0,0
18.06.2018 21:00:00 32,9 7,0 5 3 NNW 1013,1 20 0,0
18.06.2018 20:00:00 34,9 6,2 9 5 NNW 1012,4 20 -
18.06.2018 19:00:00 35,4 6,6 8 4 NNW 1012,2 20 0,0
18.06.2018 18:00:00 35,6 7,6 5 3 N 1012,6 20 0,0
18.06.2018 17:00:00 35,5 7,5 9 5 N 1013,2 20 -
18.06.2018 16:00:00 35,0 7,9 8 4 NNW 1013,7 20 0,0
18.06.2018 15:00:00 34,6 8,4 5 3 NE 1014,3 20 0,0
18.06.2018 14:00:00 33,5 10,2 11 6 N 1015,3 20 -
18.06.2018 13:00:00 32,2 11,4 4 2 N 1016,0 18 0,0
18.06.2018 12:00:00 30,0 12,0 8 4 N 1016,9 20 0,0
18.06.2018 11:00:00 26,3 12,7 2 1 NE 1017,6 19 -
18.06.2018 10:00:00 24,2 13,1 4 2 ENE 1018,3 20 0,0
18.06.2018 09:00:00 23,7 12,7 5 3 WNW 1018,3 20 0,0
18.06.2018 08:00:00 23,9 11,9 4 2 E 1018,0 20 -
18.06.2018 07:00:00 22,4 11,2 4 2 W 1018,1 20 0,0
18.06.2018 06:00:00 22,6 10,7 2 1 WSW 1017,7 20 0,0
18.06.2018 05:00:00 23,3 10,7 4 2 W 1017,5 20 -
18.06.2018 04:00:00 24,4 10,3 2 1 SW 1017,1 20 0,0
18.06.2018 03:00:00 26,2 9,5 9 5 WSW 1017,1 20 0,0
18.06.2018 02:00:00 27,2 9,5 8 4 W 1017,0 20 -
18.06.2018 01:00:00 27,1 9,9 8 4 WSW 1017,5 20 0,0
18.06.2018 00:00:00 29,5 9,1 11 6 W 1016,6 20 0,0
17.06.2018 23:00:00 28,7 8,9 11 6 WSW 1016,5 20 -
17.06.2018 22:00:00 28,6 11,6 8 4 SW 1015,8 20 0,0
17.06.2018 21:00:00 32,1 11,8 4 2 W 1014,7 20 0,0
17.06.2018 20:00:00 33,9 9,9 4 2 E 1014,1 19 -
17.06.2018 19:00:00 34,8 7,8 9 5 NNW 1013,9 20 0,0
17.06.2018 18:00:00 34,2 8,8 13 7 NNW 1014,1 19 0,0
17.06.2018 17:00:00 34,1 10,7 5 3 ESE 1014,3 20 -
17.06.2018 16:00:00 33,7 11,5 11 6 NNW 1014,6 20 0,0
17.06.2018 15:00:00 32,4 12,6 8 4 N 1015,2 20 0,0
17.06.2018 14:00:00 31,0 13,3 4 2 NNW 1015,8 20 -
17.06.2018 13:00:00 29,6 12,5 5 3 E 1016,2 20 0,0
17.06.2018 12:00:00 28,0 12,4 5 3 NE 1016,5 20 0,0
17.06.2018 11:00:00 26,5 13,3 8 4 E 1016,8 20 -
17.06.2018 10:00:00 24,8 12,7 8 4 E 1017,2 20 0,0
17.06.2018 09:00:00 22,8 12,7 2 1 N 1017,3 20 0,0
17.06.2018 08:00:00 20,8 11,7 2 1 NW 1017,2 20 -
17.06.2018 07:00:00 20,1 11,3 4 2 SE 1016,9 20 0,0
17.06.2018 06:00:00 20,7 11,3 2 1 NW 1016,2 20 0,0
17.06.2018 05:00:00 22,0 11,4 4 2 E 1015,6 20 -
17.06.2018 04:00:00 22,5 12,1 4 2 S 1014,8 20 0,0
17.06.2018 03:00:00 23,1 11,2 4 2 SSW 1014,9 20 0,0
17.06.2018 02:00:00 24,4 10,3 5 3 SSW 1014,3 20 -
17.06.2018 01:00:00 27,2 9,5 5 3 NE 1013,4 20 0,0
17.06.2018 00:00:00 28,1 9,4 15 8 W 1012,7 20 0,0
16.06.2018 23:00:00 27,8 9,1 13 7 W 1012,5 20 -
16.06.2018 22:00:00 28,5 9,2 11 6 W 1011,5 20 0,0
16.06.2018 21:00:00 31,3 9,5 8 4 W 1010,5 20 0,0
16.06.2018 20:00:00 33,3 8,0 8 4 NW 1009,9 20 -

tt = temperature
td = dewpoint
ff = wind speed
dd = wind direction
ppp = reduced air pressure
vv = visibility
rr = precipitation

Next stations